GFSNE_sfc_thetae_336.txt.gz
Theta_e
361 362 359 355 350 347 344 339 334 328 336 344 343 350 348 345 344 340 336 340 340 339 338 338 338 339 338 339 339 340 340 342 343 346 346 346 347 349
358 359 359 355 352 343 341 338 337 336 332 343 343 344 345 342 345 340 337 339 338 337 335 335 336 335 334 333 333 334 336 337 338 340 341 343 343 344
359 358 356 357 348 346 339 338 339 339 333 342 345 350 343 336 335 338 336 334 334 336 334 333 332 332 330 330 329 329 329 329 330 331 333 337 340 341
357 357 354 351 350 348 342 340 340 343 335 338 343 345 343 335 337 338 332 336 332 336 334 332 330 329 327 326 325 324 323 324 325 325 326 327 328 329
358 355 353 352 348 343 339 339 335 335 337 332 339 342 342 340 337 338 338 338 334 335 333 332 330 329 326 324 323 321 320 320 320 320 321 322 325 326
358 355 353 351 348 345 342 338 336 338 334 335 332 337 336 339 335 332 331 333 331 329 332 330 331 330 328 326 323 321 318 317 317 318 318 319 320 322
358 357 354 353 349 347 339 339 335 336 334 330 329 333 332 333 330 332 329 329 331 334 329 328 328 328 327 328 327 327 321 319 317 316 317 318 319 320
355 357 356 351 346 341 337 338 340 336 329 332 329 326 332 331 331 329 328 328 321 333 331 328 330 328 329 327 329 328 324 323 321 319 318 317 318 319
357 356 354 348 340 336 334 334 334 334 339 336 332 335 336 333 332 331 331 328 325 329 327 321 328 324 329 328 328 329 327 325 324 323 322 320 319 317
359 358 354 346 340 337 335 331 330 330 334 332 334 335 338 343 337 335 334 329 326 328 328 318 327 322 319 320 325 323 321 320 321 323 321 317 314 312
359 358 354 346 335 332 333 330 330 328 330 332 332 328 329 336 338 331 326 323 319 322 326 321 326 323 320 316 317 321 318 316 316 317 318 316 315 311
353 356 339 341 329 327 331 329 326 327 327 326 326 327 331 334 335 332 328 320 318 318 325 319 322 321 315 322 315 314 314 315 313 314 315 315 313 310
344 342 340 324 323 323 326 330 329 330 329 327 325 327 330 328 329 330 332 323 320 320 326 322 320 321 320 319 319 315 314 315 312 311 311 311 311 312
342 341 337 323 321 321 321 324 324 326 328 325 323 323 323 323 325 326 328 332 334 332 328 330 323 322 318 317 318 321 317 321 317 316 317 312 309 310
342 334 327 320 318 318 319 322 322 326 325 321 320 322 321 321 322 324 328 332 332 331 334 331 330 327 325 322 319 323 322 326 321 324 325 321 315 314
329 330 327 322 322 325 323 323 325 325 321 316 315 317 319 319 318 321 321 324 325 327 332 335 334 330 323 324 323 321 323 319 325 326 325 322 323 324
323 324 323 324 321 321 323 325 324 321 320 319 317 320 320 318 323 323 321 323 321 321 323 328 333 332 329 325 320 322 323 323 325 324 325 320 322 322
320 321 320 320 319 319 318 319 319 319 319 319 320 318 319 320 321 322 322 320 320 321 320 323 325 326 326 328 330 323 324 322 323 324 323 318 317 322
328 321 321 321 320 320 319 319 317 319 318 315 316 314 319 320 320 320 319 320 317 319 320 321 321 323 318 316 325 323 324 324 322 323 322 320 317 319
329 325 324 324 323 323 321 320 319 320 318 317 318 319 321 321 319 318 318 316 316 317 318 322 325 324 320 319 320 324 316 325 324 320 322 322 319 320
325 327 326 325 325 323 321 319 318 317 317 317 316 316 316 320 318 316 316 311 313 318 318 320 324 325 328 325 319 319 324 313 322 322 320 317 313 314
323 325 325 325 323 321 320 318 315 313 314 315 315 314 314 318 317 316 316 315 315 319 320 324 324 326 324 320 318 318 321 322 316 315 316 320 316 311
322 322 324 325 323 321 320 316 314 313 313 315 316 318 318 316 316 315 314 315 319 318 323 320 320 320 319 321 318 318 319 319 320 316 317 315 313 314

GFSNE_sfc_thetae_339.txt.gz
Theta_e
351 350 346 345 341 332 329 326 322 317 330 336 337 341 339 340 342 334 333 340 340 338 338 338 339 340 340 340 341 341 341 342 344 347 348 347 347 348
351 348 346 344 342 330 328 326 324 323 320 334 337 342 342 339 344 332 331 339 338 336 335 335 336 336 336 335 335 336 337 338 339 340 341 343 343 344
349 347 346 343 340 335 327 324 324 326 322 333 337 338 333 335 338 332 334 329 332 335 335 334 332 331 331 331 331 331 331 331 331 332 334 337 338 339
347 346 345 346 341 337 331 327 323 329 325 331 335 336 331 326 331 329 329 330 327 335 333 332 330 329 327 326 325 325 325 325 325 325 327 328 329 329
349 346 345 342 340 337 333 327 327 326 325 333 332 335 329 329 328 329 326 327 328 335 332 331 329 328 326 324 322 320 319 319 320 320 321 323 325 326
351 350 347 344 342 338 334 327 327 324 323 323 329 331 328 327 328 325 325 326 325 329 331 328 329 329 327 324 322 320 317 316 316 317 317 318 320 321
350 352 349 348 347 342 337 331 326 325 322 321 321 328 328 327 325 325 322 322 324 322 321 322 323 322 323 326 324 325 319 318 316 315 314 315 316 318
350 349 351 350 347 343 341 337 332 324 322 321 319 320 327 329 327 326 322 320 317 325 321 321 324 321 323 321 325 326 323 321 318 316 315 314 315 316
353 351 350 351 346 344 339 335 336 336 331 326 323 324 325 331 329 325 324 322 319 322 323 321 324 322 325 325 326 326 324 322 321 320 319 318 317 317
354 353 351 350 345 341 335 330 325 326 327 334 328 328 328 331 330 329 327 323 319 320 320 313 318 318 319 322 328 327 325 323 320 319 320 318 315 312
354 354 353 351 338 333 333 329 327 325 330 332 332 331 331 331 333 327 321 314 311 316 318 314 315 313 312 314 320 326 321 318 316 317 318 315 312 310
351 353 340 349 331 329 334 331 326 327 328 327 326 327 327 325 334 330 321 317 312 312 317 313 316 315 310 313 310 313 312 315 312 312 314 314 311 308
348 348 351 333 325 326 329 332 330 331 329 325 324 324 323 325 330 324 324 321 315 313 318 314 313 314 311 311 308 308 308 307 308 308 310 310 309 310
348 346 339 325 321 321 325 328 328 329 329 325 323 322 323 324 326 326 325 321 321 320 323 318 313 314 311 311 309 310 309 308 308 307 309 309 308 309
347 340 329 318 317 320 322 324 325 327 327 325 321 320 321 324 322 322 322 328 326 325 325 325 321 319 315 312 314 315 313 312 315 311 311 312 311 308
332 331 327 324 323 325 323 323 325 326 326 325 321 320 318 318 318 318 319 324 322 323 326 329 326 321 318 317 317 316 317 315 319 315 316 318 315 312
327 327 326 325 325 325 325 323 324 325 324 319 317 316 318 317 316 317 318 319 317 319 320 322 327 327 320 317 315 315 315 316 318 318 317 317 319 318
324 324 324 325 324 323 323 323 322 321 320 316 317 317 316 315 316 316 317 317 316 318 318 321 321 322 322 323 324 314 317 317 318 319 318 315 313 316
326 326 325 323 323 322 322 321 321 321 320 317 316 315 315 316 316 318 316 316 316 317 318 318 320 319 315 313 316 321 320 319 318 317 318 314 312 315
327 325 324 324 325 323 322 321 321 319 319 318 317 314 312 316 316 317 318 317 317 316 316 317 316 319 316 315 314 319 314 321 319 320 316 315 314 317
326 328 326 325 325 324 323 322 322 320 319 318 316 315 311 314 316 317 318 313 314 316 314 315 316 321 323 320 315 315 318 313 320 320 320 312 309 306
324 326 328 326 326 325 324 323 321 319 318 317 315 314 313 314 314 317 316 316 316 315 316 317 318 321 320 320 318 317 317 320 315 316 318 321 309 305
324 324 326 327 326 325 324 321 319 318 316 316 315 314 314 313 315 317 317 315 315 313 313 315 317 319 319 319 316 317 314 316 318 316 313 315 314 314

GFSNE_sfc_thetae_342.txt.gz
Theta_e
348 346 345 343 340 331 328 323 326 323 327 333 338 340 338 341 345 337 335 341 340 339 338 339 340 341 341 341 341 342 343 344 345 347 349 348 350 349
349 347 345 342 341 329 324 324 320 319 324 331 336 337 338 340 343 331 332 340 339 338 336 336 337 337 337 337 338 339 339 340 341 341 342 343 343 343
348 347 345 343 340 333 326 322 322 323 319 329 334 337 333 334 338 328 332 330 332 336 335 334 333 333 333 333 333 333 334 333 334 336 338 339 339 339
347 345 343 345 339 336 330 323 320 323 322 326 330 331 330 333 333 327 331 331 328 335 334 333 331 330 329 328 327 327 326 326 326 328 329 330 330 330
347 346 345 342 339 337 333 327 324 325 325 330 329 331 325 329 326 326 324 324 327 333 332 331 329 328 327 325 323 321 321 320 320 320 322 324 326 326
348 347 345 343 341 338 335 331 325 322 322 329 329 328 324 324 329 326 321 324 321 327 330 328 329 329 327 324 323 321 318 317 317 317 317 318 320 322
348 349 347 347 346 342 339 332 325 322 319 323 325 325 323 322 325 324 325 322 321 321 321 321 321 320 322 325 323 324 320 318 316 316 315 315 315 316
348 348 351 348 345 342 341 339 332 323 321 319 319 329 329 326 325 324 322 318 317 321 317 319 320 318 319 319 323 324 322 320 318 316 315 314 314 315
350 350 349 351 347 345 340 338 335 333 331 325 321 321 331 332 327 325 324 319 318 319 321 317 320 318 320 322 324 325 323 321 319 318 316 315 314 315
350 352 352 349 348 346 343 339 336 333 330 332 327 324 328 333 333 331 329 324 318 320 324 317 317 319 320 323 326 325 324 322 320 319 318 316 314 312
334 336 353 350 343 337 343 340 335 331 333 333 332 332 333 332 334 328 322 320 314 315 320 315 313 314 313 316 322 327 323 321 318 318 317 316 312 310
338 340 342 349 335 331 343 339 335 333 330 330 331 330 332 331 333 330 328 324 312 310 317 318 312 311 310 311 313 320 320 318 315 313 314 314 310 306
346 346 349 332 328 325 330 340 336 335 331 330 330 329 328 327 327 332 331 326 318 314 317 317 312 310 309 308 307 309 311 307 309 307 309 309 309 308
349 349 346 326 322 323 325 333 328 330 331 329 326 323 322 324 327 328 326 326 326 324 319 316 312 311 311 305 305 306 305 306 305 305 306 307 308 309
338 339 331 320 317 321 322 324 325 331 328 325 323 322 324 326 324 323 324 322 323 323 323 318 313 313 311 309 309 308 306 306 308 308 307 308 308 307
328 333 329 324 322 325 324 326 329 330 328 326 325 327 322 320 319 321 322 323 321 321 324 323 319 316 314 312 314 314 312 311 310 310 311 309 311 311
329 329 325 324 324 324 325 326 326 327 327 327 324 320 318 318 318 317 322 322 320 319 320 324 325 320 317 318 314 315 316 315 317 314 312 312 314 317
327 327 327 326 325 325 325 324 325 326 326 327 326 320 317 317 316 314 317 320 319 318 319 320 321 321 321 322 321 315 315 315 317 317 316 314 315 317
330 328 328 327 327 327 326 325 323 325 326 324 321 319 317 317 314 313 313 312 312 315 316 318 317 316 313 311 316 318 313 315 315 315 317 315 314 317
328 328 328 328 327 326 326 326 325 324 322 321 318 316 316 315 312 313 312 311 312 312 316 314 316 317 314 312 313 317 313 319 317 316 315 316 316 315
326 328 328 328 327 327 326 325 324 322 321 321 319 318 316 317 316 314 315 310 312 315 315 314 316 319 320 319 314 315 318 312 318 319 317 314 311 307
326 327 329 328 325 324 324 325 323 321 320 321 320 320 318 317 316 316 316 315 314 315 314 316 318 317 316 315 314 316 318 319 314 315 317 317 311 307
327 326 327 329 329 327 326 325 324 323 321 321 320 319 318 313 314 315 315 316 315 314 313 314 315 316 315 316 315 317 318 317 318 316 318 315 315 314

GFSNE_sfc_thetae_345.txt.gz
Theta_e
345 343 343 343 341 332 328 324 329 323 327 332 334 337 339 343 348 344 340 344 342 340 339 339 340 341 341 340 342 344 346 347 347 347 348 349 352 353
346 344 343 342 341 333 325 322 320 327 326 331 334 335 338 342 346 336 335 342 340 339 337 337 337 338 338 337 338 339 340 341 342 343 343 344 345 344
345 345 344 342 340 334 325 322 320 320 318 323 332 335 333 335 339 330 334 332 333 337 336 335 334 335 335 335 335 336 336 336 337 339 340 340 341 341
343 343 344 344 340 336 328 322 321 322 320 324 328 330 331 332 335 328 330 332 329 336 335 333 332 331 330 330 329 329 329 329 330 331 332 333 333 334
344 343 343 339 339 337 333 327 321 323 323 327 327 327 324 328 325 325 325 324 327 332 333 332 331 329 327 326 325 323 322 322 322 322 324 326 328 329
346 345 344 343 342 338 336 333 326 322 321 326 327 326 324 324 329 325 320 321 320 327 331 328 330 329 327 325 323 322 319 318 317 317 318 319 321 322
344 345 345 346 346 342 341 335 329 323 319 325 325 323 321 321 328 324 325 322 320 319 320 320 320 320 321 325 322 325 321 319 317 316 315 316 316 317
343 341 346 347 346 342 341 341 336 328 321 323 325 325 326 325 329 326 325 319 318 321 318 318 319 316 318 318 323 324 323 320 318 317 315 315 315 315
344 344 345 350 346 346 340 339 337 335 334 326 324 329 329 330 328 322 324 320 319 321 321 319 317 317 318 319 324 324 323 321 319 318 316 315 314 314
334 340 337 336 345 346 346 341 340 337 332 330 328 329 336 334 329 329 328 324 319 319 321 315 315 317 317 319 325 325 323 321 319 317 316 314 312 311
338 333 332 331 335 337 342 342 341 341 336 331 331 332 332 334 334 328 322 320 316 316 320 319 314 316 315 317 320 326 323 320 318 317 317 316 312 311
334 333 330 328 327 330 341 344 341 341 338 334 332 332 333 332 335 334 330 326 323 319 320 319 311 312 312 311 314 320 323 319 316 315 316 315 311 308
337 332 333 326 325 323 327 342 344 343 335 335 333 332 331 331 332 333 332 329 327 323 318 322 313 309 310 309 308 314 319 314 315 312 310 309 309 308
343 344 336 327 325 323 325 330 329 331 334 332 329 329 328 329 330 330 331 331 330 327 319 324 314 311 309 305 309 306 309 309 308 308 304 306 307 309
346 342 330 324 324 324 322 324 325 335 332 329 328 328 329 329 330 327 326 328 326 323 322 324 318 317 316 309 308 306 307 307 307 304 304 305 305 305
329 333 330 328 325 328 325 323 330 334 332 330 329 330 328 326 325 324 323 322 320 318 320 320 319 317 312 313 312 309 307 308 307 306 306 307 308 308
330 330 327 326 325 325 325 327 330 331 329 329 327 325 323 322 321 320 321 321 318 316 317 320 319 318 317 315 312 313 310 309 309 307 306 307 310 311
329 330 329 328 327 326 325 325 326 328 329 328 328 327 323 321 320 317 317 318 318 315 318 319 321 320 320 319 320 314 315 314 316 313 314 309 311 316
332 330 330 329 329 329 328 327 325 327 329 328 327 326 323 321 318 317 315 316 318 314 316 316 319 314 313 310 317 317 316 315 315 315 316 316 316 319
330 331 328 328 328 329 329 328 328 326 326 326 326 326 323 320 317 317 313 313 314 310 313 311 316 316 313 311 310 316 312 315 314 314 314 317 318 316
326 328 329 326 329 329 328 328 328 326 325 324 324 323 321 319 317 317 314 309 311 313 312 313 316 319 315 314 311 312 316 313 318 316 316 314 313 313
326 325 327 327 327 326 327 327 326 324 324 324 323 322 319 319 317 316 315 313 312 313 313 314 313 314 313 313 312 312 314 318 315 314 316 317 314 309
324 326 326 325 327 327 326 326 326 325 324 324 323 323 322 319 318 319 316 316 314 313 312 312 314 313 315 313 314 314 314 316 317 317 317 316 315 315